Flag for Israel Weather past 2 weeks in Kfar Saba, Israel

Now
70 °F

Sunny.


Feels Like: 70 °F
Forecast: 66 / 81 °F
Wind: 3 mph from North

Location: Dov Airport

Current Time: Oct 26, 2014 at 7:15:33 AM

Latest Report: Oct 26, 2014 at 6:50 AM


Visibility: 10 mi

Pressure: 29.95 "Hg

Humidity: 60%

Dew point: 55 °F

Location of Kfar SabaLocation

Historic Weather in Kfar Saba — Graph

°F

Kfar Saba temperature yesterday

Maximum temperature yesterday: 81 °F (at 12:50 PM)
Minimum temperature yesterday: 64 °F (at 5:50 AM)
Average temperature yesterday: 75 °F

Past Weeks' High & Low Weather Summary

 TemperatureHumidityPressure
High82 °F (Oct 11, 10:50 AM)94% (Oct 19, 5:50 PM)30.12 "Hg (Oct 19, 5:50 PM)
Low63 °F (Oct 21, 5:50 AM)37% (Oct 22, 9:50 AM)29.71 "Hg (Oct 19, 2:50 PM)
Average76 °F61%29.94 "Hg
* Reported Oct 11 6:50 AM — Oct 26 5:50 AM, Kfar Saba, Weather by CustomWeather, © 2014

Note: Actual official high and low records may vary slightly from our data, if they occured in-between our weather recording intervals... More about our weather records

Advertising

Kfar Saba weather history for previous 24 hours

 ConditionsComfort  
Time TempWeatherWind HumidityBarometerVisibility
5:50 AM
Oct 26
68 °FClear.No wind56%29.95 "Hg10 mi
10:50 PM
Oct 25
72 °FClear.5 mph73%29.95 "Hg10 mi
9:50 PM73 °FClear.3 mph69%29.95 "Hg10 mi
8:50 PM75 °FClear.3 mph65%29.95 "Hg10 mi
7:50 PM75 °FClear.3 mph65%29.95 "Hg10 mi
6:50 PM77 °FClear.5 mph61%29.95 "Hg10 mi
5:50 PM79 °FSunny.13 mph61%29.92 "Hg10 mi
4:50 PM81 °FSunny.12 mph54%29.92 "Hg10 mi
3:50 PM81 °FSunny.13 mph51%29.92 "Hg10 mi
2:50 PM81 °FSunny.13 mph54%29.92 "Hg10 mi
1:50 PM81 °FSunny.9 mph51%29.92 "Hg10 mi
12:50 PM81 °FPassing clouds.7 mph48%29.95 "HgN/A
11:50 AM79 °FSunny.5 mph45%29.95 "Hg10 mi
10:50 AM79 °FSunny.3 mph45%29.98 "Hg10 mi
9:50 AM79 °FSunny.1 mph42%29.98 "Hg10 mi
8:50 AM72 °FPassing clouds.6 mph53%29.98 "HgN/A
7:50 AM66 °FSunny.6 mph64%29.98 "Hg10 mi
Weather by CustomWeather, © 2014

See weather overviewHow to use our weather pages